Springfield, IL

5:00 AM CST on December 16, 2019 (GMT -0600)
Capital

Weather History for KSPI - October, 2019

Change the Weather History Date:

Tuesday, October 1, 2019

  Actual Average Record
Temperature  
Mean Temperature 82 °F 60 °F  
Max Temperature 91 °F 73 °F 91 °F (1897)
Min Temperature 73 °F 48 °F 32 °F (2003)
Degree Days  
Heating Degree Days 0 6  
Month to date heating degree days 6  
Since 1 July heating degree days 87  
Cooling Degree Days 16 2  
Month to date cooling degree days 2  
Year to date cooling degree days 1101  
Growing Degree Days 32 (Base 50)    
Moisture  
Dew Point 68 °F    
Average Humidity 67    
Maximum Humidity 84    
Minimum Humidity 50    
Precipitation  
Precipitation 0.00 in 0.10 in 3.03 in (1962)
Month to date precipitation 0.10  
Year to date precipitation 28.65  
Snow  
Snow 0.00 in 0.00 in 0.00 in ()
Month to date snowfall 0.0  
Since 1 July snowfall 0.0  
Since 1 September snowfall 0.0  
Snow Depth -    
Sea Level Pressure  
Sea Level Pressure 29.95 in    
Wind  
Wind Speed 8 mph (SSW)    
Max Wind Speed 13 mph    
Max Gust Speed 22 mph    
Visibility 10 miles    
Events      
T = Trace of Precipitation, MM = Missing Value Source: NWS Daily Summary

Daily Weather History Graph

Daily Weather History Graph

Search for Another Location

Airport or City:

Astronomy

Oct. 01, 2019 Rise Set
Actual Time 6:54 AM CDT 6:41 PM CDT
Civil Twilight 6:27 AM CDT 7:08 PM CDT
Nautical Twilight 5:56 AM CDT 7:39 PM CDT
Astronomical Twilight 5:24 AM CDT 8:11 PM CDT
Moon 10:10 AM CDT (10/1) 8:54 PM CDT (10/1)
Length of Visible Light 12h 40m
Length of Day
11h 46m
Waxing Crescent, 12% of the Moon is Illuminated
Oct 1
Waxing Crescent
Oct 5
First Quarter
Oct 13
Full
Oct 21
Last Quarter
Oct 27
New

Hourly Weather History & Observations

Time (CDT) Temp. Heat Index Dew Point Humidity Pressure Visibility Wind Dir Wind Speed Gust Speed Precip Events Conditions
12:52 AM 73.9 °F - 66.9 °F 79% 29.96 in 10.0 mi SSW 8.1 mph - N/A   Clear
1:52 AM 75.0 °F - 66.9 °F 76% 29.97 in 10.0 mi SSW 8.1 mph - N/A   Clear
2:52 AM 73.9 °F - 68.0 °F 82% 29.97 in 10.0 mi SSW 5.8 mph - N/A   Clear
3:52 AM 73.9 °F - 68.0 °F 82% 29.98 in 10.0 mi SW 4.6 mph - N/A   Clear
4:52 AM 73.9 °F - 68.0 °F 82% 29.99 in 10.0 mi SSW 6.9 mph - N/A   Clear
5:52 AM 73.0 °F - 68.0 °F 84% 29.99 in 10.0 mi SSW 6.9 mph - N/A   Clear
6:52 AM 73.0 °F - 68.0 °F 84% 30.00 in 10.0 mi SSW 6.9 mph - N/A   Clear
7:52 AM 75.0 °F - 69.1 °F 82% 30.00 in 10.0 mi SSW 8.1 mph - N/A   Clear
8:52 AM 75.9 °F - 69.1 °F 79% 30.00 in 10.0 mi SW 8.1 mph 18.4 mph N/A   Clear
9:52 AM 81.0 °F 84.1 °F 69.1 °F 67% 29.99 in 10.0 mi SW 10.4 mph - N/A   Clear
10:52 AM 84.9 °F 88.8 °F 69.1 °F 59% 29.99 in 10.0 mi SW 10.4 mph 20.7 mph N/A   Clear
11:52 AM 87.1 °F 92.0 °F 70.0 °F 57% 29.98 in 10.0 mi WSW 12.7 mph 20.7 mph N/A   Clear
12:52 PM 90.0 °F 94.5 °F 69.1 °F 50% 29.97 in 10.0 mi SW 11.5 mph - N/A   Mostly Cloudy
1:52 PM 90.0 °F 94.5 °F 69.1 °F 50% 29.96 in 10.0 mi WSW 10.4 mph - N/A   Mostly Cloudy
2:52 PM 90.0 °F 94.5 °F 69.1 °F 50% 29.94 in 10.0 mi WSW 10.4 mph 19.6 mph N/A   Mostly Cloudy
3:52 PM 89.1 °F 95.0 °F 71.1 °F 55% 29.92 in 10.0 mi SSW 6.9 mph 17.3 mph N/A   Partly Cloudy
4:52 PM 89.1 °F 94.1 °F 70.0 °F 53% 29.91 in 10.0 mi South 6.9 mph - N/A   Clear
5:52 PM 87.1 °F 91.3 °F 69.1 °F 55% 29.90 in 10.0 mi SSW 6.9 mph - N/A   Partly Cloudy
6:52 PM 82.0 °F 85.5 °F 69.1 °F 65% 29.90 in 10.0 mi South 6.9 mph - N/A   Clear
7:52 PM 81.0 °F 83.8 °F 68.0 °F 65% 29.89 in 10.0 mi South 6.9 mph - N/A   Clear
8:52 PM 79.0 °F - 66.9 °F 66% 29.89 in 10.0 mi South 6.9 mph - N/A   Clear
9:52 PM 81.0 °F 83.0 °F 66.0 °F 60% 29.89 in 10.0 mi South 11.5 mph 21.9 mph N/A   Clear
10:52 PM 80.1 °F 82.1 °F 66.0 °F 62% 29.89 in 10.0 mi South 12.7 mph 21.9 mph N/A   Clear
11:52 PM 78.1 °F - 66.0 °F 66% 29.88 in 10.0 mi South 9.2 mph - N/A   Clear